387P/Boattini (2019)

Japanese version
Home page
Updated on November 9, 2019

---------------------------------------------------------------------

* Profile

Designation 387P/2019 R1
Recovery Date September 2, 2019
Magnitude 15.8 mag
Recoverer G. Borisov (MARGO observatory near Nauchnij, Crimea)

* Pictures

* Orbital Elements

Epoch 2019 Aug. 25.0 TT = JDT 2458720.5
T 2019 Sept. 6.17997 TT                                 Williams
q   1.2678520            (2000.0)            P               Q
n   0.09365049     Peri.  162.80609     +0.46370002     -0.87279881
a   4.8024482      Node   259.34049     +0.79356785     +0.48560040
e   0.7359988      Incl.    8.91710     +0.39399538     +0.04913752
P  10.5
From 265 observations 2008 Dec. 22-2019 Nov. 3, mean residual 0".6.

* Finding Charts

* Magnitudes Graph

        m1 = 14.0 + 5 log d + 15.0 log r

---------------------------------------------------------------------

The orbital elements are published on M.P.E.C. 2019-V116.
The charts are made with StellaNavigator Ver.10 (AstroArts).
The magnitudes graphs are made with Comet for Windows.

---------------------------------------------------------------------

Copyright(C) Seiichi Yoshida (comet@aerith.net). All rights reserved.